Powrót do katalogu

DELTA 1 DEB

AktywnySSO
NORAD 7072·DEBRIS·🇺🇸 United States

Wystrzelony Nov 6, 1973 z Vandenberg Space Force Base

Loading…

Następne Przeloty (najbliższe 24 godziny)

TLE

ŚwieżeSource: Space-Track

Epoka: Sep 14, 2026, 09:34 UTC

1 07072U 73086BQ  26257.39919378 -.00000027  00000-0  12388-3 0  9996
2 07072 101.8492 213.1872 0011177  42.3017 109.4851 12.42685280396397

Śledź DELTA 1 DEB w czasie rzeczywistym z AllMySat

Download on the App Store